Location: Unspecified
(0.0000°N, 0.0000°E)
Time: 00:25:26
(UTC+00:00)

deb Delta 104 - Pass Details

Date: 10 March 2026
Orbit: 1430 x 1579 km, 102.3° (Epoch: 12 April)

Event Time Altitude Azimuth Distance (km) Brightness Sun altitude
Rises 03:56:33 0° 38° (NE) 4,755 ? -33.4°
Reaches altitude 10° 03:59:52 10° 48° (NE) 3,772 ? -32.5°
Maximum altitude 04:07:27 32° 107° (ESE) 2,453 ? -30.6°
Drops below altitude 10° 04:14:55 10° 166° (SSE) 3,732 ? -28.8°
Sets 04:18:08 0° 175° (S) 4,699 ? -28.0°
